FW2982 Weather Reports


Display with metric or nautical units.
time (UTC)temp
F
wind
direction
speed
MPH
gust
MPH
rain 1hr
in
rain 24hr
in
rain mn
in
humidity
%
barometer
mb
20260905073656 70 10 0.0 0.0 0.00 0.29 0.00 97 1009.1
20260905073154 70 10 0.0 0.0 0.00 0.30 0.00 97 1009.1
20260905072655 70 10 0.0 0.0 0.00 0.30 0.00 97 1009.1
20260905072433 70 10 0.0 0.0 0.00 0.30 0.00 97 1009.1
20260905071654 70 10 0.0 0.0 0.00 0.30 0.00 97 1009.1
20260905071154 70 10 0.0 0.0 0.00 0.31 0.00 97 1009.1
20260905070655 70 34 0.0 0.0 0.00 0.31 0.00 97 1009.1
20260905070154 70 34 0.0 0.0 0.00 0.32 0.00 97 1009.1
20260905065655 70 34 0.0 1.0 0.00 0.32 0.00 97 1009.2
20260905065153 70 52 0.0 1.0 0.00 0.32 0.00 97 1009.3
20260905064653 70 52 0.0 1.0 0.00 0.32 0.00 97 1009.2
20260905064154 70 52 0.0 1.0 0.00 0.33 0.00 97 1009.3
20260905063654 70 52 0.0 1.0 0.00 0.33 0.00 96 1009.4
20260905063430 70 52 0.0 0.0 0.00 0.34 0.00 96 1009.6
20260905062654 70 52 0.0 0.0 0.00 0.34 0.00 96 1009.7
20260905062153 70 52 0.0 0.0 0.00 0.34 0.00 97 1009.7
20260905061653 71 52 0.0 0.0 0.00 0.35 0.00 97 1009.9
20260905061152 71 52 0.0 0.0 0.00 0.35 0.00 97 1010.0
20260905060720 71 52 0.0 0.0 0.00 0.36 0.00 97 1010.2
20260905060710 71 52 0.0 0.0 0.00 0.36 0.00 97 1010.0
20260905055652 71 52 0.0 0.0 0.00 0.36 0.00 96 1010.0
20260905055153 71 52 0.0 0.0 0.00 0.37 0.00 96 1010.1
20260905054653 71 52 0.0 0.0 0.00 0.37 0.00 97 1010.1
20260905054432 71 52 0.0 0.0 0.00 0.38 0.00 96 1010.2
20260905053653 71 52 0.0 0.0 0.00 0.38 0.00 96 1010.4
20260905053152 71 52 0.0 0.0 0.00 0.38 0.00 96 1010.5
20260905052652 71 52 0.0 0.0 0.00 0.39 0.00 96 1010.3
20260905052152 71 52 0.0 0.0 0.00 0.39 0.00 97 1010.3
20260905051643 71 52 0.0 0.0 0.00 0.40 0.00 96 1010.4
20260905051420 71 52 0.0 0.0 0.00 0.40 0.00 97 1010.4
20260905050917 71 52 0.0 0.0 0.00 0.41 0.00 97 1010.5
20260905050420 71 52 0.0 0.0 0.00 0.42 0.00 96 1010.5
20260905045639 71 52 0.0 0.0 0.00 0.42 0.00 96 1010.5
20260905045416 71 52 0.0 0.0 0.01 0.43 0.00 96 1010.6
20260905044639 71 52 0.0 0.0 0.01 0.43 0.00 96 1010.6
20260905044135 71 52 0.0 0.0 0.01 0.44 0.00 96 1010.7
20260905043636 71 52 0.0 0.0 0.01 0.45 0.00 96 1010.6
20260905043136 71 52 0.0 0.0 0.01 0.45 0.00 96 1010.6
20260905042635 71 52 0.0 0.0 0.01 0.46 0.00 96 1010.7
20260905042132 72 52 0.0 0.0 0.01 0.47 0.00 96 1010.7
20260905041634 72 52 0.0 0.0 0.01 0.48 0.00 96 1010.8
20260905041412 72 52 0.0 0.0 0.01 0.48 0.00 96 1010.8
20260905040634 72 52 0.0 0.0 0.01 0.49 0.00 96 1010.8
20260905040135 72 52 0.0 0.0 0.01 0.50 0.00 96 1010.9
20260905035630 72 52 0.0 0.0 0.01 0.50 0.51 96 1010.8
20260905035130 71 52 0.0 0.0 0.00 0.52 0.50 96 1010.8
20260905034606 71 52 0.0 0.0 0.00 0.53 0.50 96 1010.9
20260905034106 71 52 0.0 0.0 0.00 0.54 0.50 96 1011.0
20260905033603 72 52 0.0 0.0 0.00 0.56 0.50 96 1011.1
20260905033103 72 52 0.0 0.0 0.00 0.57 0.50 96 1011.0
20260905032602 72 52 0.0 0.0 0.00 0.59 0.50 96 1011.0
20260905032103 72 52 0.0 0.0 0.00 0.60 0.50 96 1010.9
20260905031604 72 52 0.0 0.0 0.00 0.60 0.50 96 1011.0
20260905031101 72 52 0.0 0.0 0.00 0.60 0.50 96 1011.0
20260905030845 72 52 0.0 0.0 0.00 0.60 0.50 96 1011.0
20260905025603 72 52 0.0 0.0 0.00 0.60 0.50 96 1010.9
20260905025103 72 52 0.0 0.0 0.01 0.60 0.50 96 1010.9
20260905024840 72 52 0.0 0.0 0.01 0.60 0.50 96 1011.0
20260905024102 72 52 0.0 0.0 0.01 0.60 0.50 96 1010.9
20260905023603 72 52 0.0 0.0 0.01 0.60 0.50 96 1010.9
20260905023343 72 52 0.0 0.0 0.01 0.60 0.50 96 1010.9
20260905022600 72 52 0.0 0.0 0.01 0.60 0.50 96 1010.9
20260905022059 72 52 0.0 0.0 0.01 0.60 0.50 96 1010.9
20260905021838 72 52 0.0 0.0 0.01 0.60 0.50 96 1010.9
20260905021101 72 52 0.0 0.0 0.01 0.60 0.50 96 1010.8
20260905020600 72 52 0.0 0.0 0.01 0.60 0.50 96 1010.6
20260905020056 72 52 0.0 0.0 0.01 0.60 0.50 96 1010.4
20260905015557 72 52 0.0 0.0 0.01 0.59 0.50 96 1010.4
20260905015056 73 52 0.0 0.0 0.00 0.59 0.49 96 1010.5
20260905014555 73 52 0.0 0.0 0.00 0.59 0.49 96 1010.6
20260905014056 73 52 0.0 0.0 0.00 0.59 0.49 96 1010.6
20260905013613 73 52 0.0 0.0 0.00 0.59 0.49 96 1010.4
20260905013607 73 52 0.0 0.0 0.00 0.59 0.49 96 1010.4
20260905012549 73 52 0.0 0.0 0.00 0.59 0.49 96 1010.4
20260905012046 73 52 0.0 0.0 0.00 0.59 0.49 96 1010.2
20260905011546 73 52 0.0 0.0 0.00 0.59 0.49 96 1010.1
20260905011046 73 52 0.0 0.0 0.00 0.59 0.49 96 1010.1
20260905010546 73 52 0.0 0.0 0.00 0.59 0.49 96 1010.0
20260905010047 74 52 0.0 0.0 0.00 0.59 0.49 95 1009.9
20260905005546 73 52 0.0 0.0 0.00 0.59 0.49 95 1009.8
20260905005046 74 52 0.0 0.0 0.00 0.59 0.49 96 1009.8
20260905004546 74 52 0.0 0.0 0.00 0.59 0.49 96 1009.8
20260905004324 74 52 0.0 0.0 0.00 0.59 0.49 96 1009.8
20260905003547 74 52 0.0 0.0 0.00 0.59 0.49 95 1010.0
20260905003046 74 52 0.0 0.0 0.00 0.59 0.49 95 1009.9
20260905002545 74 52 0.0 0.0 0.01 0.59 0.49 95 1009.8
20260905002045 74 52 0.0 0.0 0.01 0.59 0.49 95 1009.9
20260905001546 74 52 0.0 0.0 0.01 0.59 0.49 95 1009.9
20260905001045 74 52 0.0 0.0 0.01 0.59 0.49 95 1009.9
20260905000544 75 52 0.0 0.0 0.01 0.59 0.49 95 1009.9
20260905000325 75 52 0.0 0.0 0.01 0.59 0.49 95 1010.0
20260904235545 75 52 0.0 0.0 0.01 0.58 0.49 95 1009.9
20260904235044 75 52 0.0 0.0 0.01 0.58 0.49 95 1009.9
20260904234544 75 52 0.0 0.0 0.01 0.58 0.49 95 1009.9
20260904234044 75 52 0.0 0.0 0.01 0.58 0.49 95 1010.0
20260904233826 75 52 0.0 0.0 0.01 0.58 0.49 95 1010.1
20260904233044 75 52 0.0 0.0 0.01 0.58 0.48 95 1010.2
20260904232544 75 52 0.0 0.0 0.00 0.58 0.48 95 1010.2
20260904232045 75 52 0.0 0.0 0.00 0.58 0.48 95 1010.0
20260904231544 76 52 0.0 0.0 0.00 0.58 0.48 95 1010.1
20260904231046 76 52 0.0 0.0 0.00 0.58 0.48 95 1010.2
20260904230543 76 52 0.0 0.0 0.00 0.58 0.48 95 1010.2
20260904230106 76 52 0.0 0.0 0.00 0.58 0.48 95 1010.0
20260904230058 76 52 0.0 0.0 0.00 0.58 0.48 95 1010.1
20260904225043 76 52 0.0 0.0 0.01 0.58 0.48 95 1010.1
20260904224544 76 52 0.0 0.0 0.01 0.58 0.48 95 1009.9
20260904224309 76 52 0.0 0.0 0.01 0.58 0.48 95 1009.9
20260904223533 76 52 0.0 0.0 0.01 0.58 0.48 95 1009.6
20260904223031 76 52 0.0 0.0 0.01 0.58 0.48 95 1009.6
20260904222531 76 52 0.0 0.0 0.01 0.58 0.48 95 1009.9
20260904222031 76 52 0.0 0.0 0.01 0.58 0.48 95 1010.1
20260904221532 76 52 0.0 0.0 0.01 0.58 0.48 94 1010.2
20260904221031 76 52 0.0 0.0 0.01 0.58 0.48 95 1010.1
20260904220530 76 52 0.0 0.0 0.01 0.58 0.48 95 1010.4
20260904220032 76 52 0.0 0.0 0.01 0.57 0.48 94 1010.5
20260904215530 75 52 0.0 0.0 0.01 0.57 0.48 94 1010.6
20260904215056 75 52 0.0 0.0 0.00 0.57 0.47 94 1010.7
20260904215048 75 52 0.0 0.0 0.00 0.57 0.47 94 1010.6
20260904214018 75 52 0.0 0.0 0.00 0.57 0.47 94 1010.7
20260904213515 75 52 0.0 0.0 0.00 0.57 0.47 94 1010.6
20260904213015 75 52 0.0 0.0 0.00 0.57 0.47 93 1010.5
20260904212514 75 52 0.0 0.0 0.00 0.57 0.47 93 1010.7
20260904212012 75 52 0.0 1.0 0.01 0.57 0.47 93 1010.7
20260904211511 75 52 0.0 2.0 0.01 0.57 0.47 92 1010.7
20260904211247 76 52 0.0 3.0 0.01 0.57 0.47 92 1010.8
20260904210509 76 52 0.0 3.0 0.01 0.57 0.47 91 1010.9
20260904210010 76 275 0.0 5.0 0.01 0.56 0.47 90 1011.0
20260904205504 77 271 0.0 5.0 0.01 0.56 0.47 87 1010.7
20260904205006 78 345 1.0 5.0 0.01 0.56 0.47 85 1011.3
20260904204505 80 279 2.0 6.0 0.01 0.56 0.47 82 1011.5
20260904204003 83 248 3.0 6.0 0.01 0.56 0.47 82 1011.7
20260904203503 84 35 0.0 0.0 0.01 0.56 0.47 81 1011.1
20260904203004 84 35 0.0 0.0 0.01 0.56 0.47 81 1010.8
20260904202504 85 35 0.0 0.0 0.02 0.56 0.47 79 1010.9
20260904202244 85 35 0.0 0.0 0.01 0.56 0.46 78 1010.9
20260904201503 86 35 0.0 0.0 0.01 0.56 0.46 77 1010.9
20260904201003 86 35 0.0 0.0 0.01 0.56 0.46 76 1010.9
20260904200505 87 38 0.0 1.0 0.01 0.56 0.46 76 1010.7
20260904200003 87 38 0.0 1.0 0.01 0.55 0.46 75 1010.7
20260904195503 87 38 0.0 2.0 0.01 0.55 0.46 74 1010.5
20260904194957 88 45 1.0 2.0 0.01 0.55 0.46 72 1010.4
20260904194458 88 45 0.0 2.0 0.01 0.55 0.46 74 1010.3
20260904193958 88 45 0.0 1.0 0.01 0.55 0.46 72 1010.4
20260904193732 89 45 0.0 1.0 0.01 0.55 0.46 69 1010.3
20260904192951 90 45 1.0 3.0 0.01 0.55 0.46 65 1010.3
20260904192448 91 45 1.0 3.0 0.01 0.55 0.45 65 1010.5
20260904191945 91 324 0.0 4.0 0.01 0.55 0.45 65 1010.5
20260904191446 91 312 0.0 4.0 0.01 0.55 0.45 66 1010.4
20260904190945 91 295 1.0 3.0 0.01 0.55 0.45 65 1010.5
20260904190440 91 268 1.0 3.0 0.01 0.55 0.45 63 1010.3
20260904190222 91 73 1.0 3.0 0.01 0.54 0.45 65 1010.5
20260904185442 91 152 1.0 4.0 0.01 0.54 0.45 63 1010.7
20260904184940 91 250 1.0 4.0 0.02 0.54 0.45 65 1010.7
20260904184439 91 206 2.0 4.0 0.02 0.54 0.45 63 1010.9
20260904184218 91 281 2.0 4.0 0.02 0.54 0.45 63 1011.1
20260904183438 91 319 1.0 4.0 0.02 0.54 0.45 64 1011.2
20260904183218 91 283 1.0 4.0 0.02 0.54 0.45 63 1011.3
20260904182437 91 0 1.0 3.0 0.01 0.54 0.44 65 1011.3
20260904182221 90 329 0.0 3.0 0.01 0.54 0.44 66 1011.4
20260904181437 90 173 0.0 3.0 0.01 0.54 0.44 65 1011.4
20260904180938 90 71 1.0 4.0 0.02 0.54 0.44 63 1011.5
20260904180437 91 62 1.0 4.0 0.02 0.54 0.44 62 1011.5
20260904175938 90 31 1.0 3.0 0.02 0.52 0.44 64 1011.5
20260904175437 90 358 0.0 2.0 0.02 0.52 0.44 65 1011.6
20260904175218 91 34 1.0 4.0 0.01 0.52 0.43 63 1011.6
20260904174436 90 289 0.0 4.0 0.01 0.52 0.43 64 1011.6
20260904173939 91 338 2.0 4.0 0.02 0.52 0.43 64 1011.6
20260904173436 90 58 2.0 4.0 0.02 0.52 0.43 64 1011.7
20260904172936 90 55 1.0 4.0 0.02 0.52 0.43 63 1011.7
20260904172436 91 144 2.0 4.0 0.02 0.52 0.43 61 1011.9
20260904171935 90 55 1.0 4.0 0.02 0.52 0.43 63 1011.9
20260904171435 90 39 2.0 4.0 0.02 0.52 0.43 63 1011.9
20260904170937 90 59 1.0 4.0 0.01 0.52 0.42 63 1012.0
20260904170435 90 316 1.0 4.0 0.02 0.52 0.42 61 1011.9
20260904165934 90 0 1.0 5.0 0.02 0.50 0.42 64 1011.8
20260904165436 90 307 2.0 6.0 0.02 0.50 0.42 63 1011.9
20260904164934 90 62 2.0 6.0 0.02 0.50 0.42 63 1012.0
20260904164432 91 321 2.0 5.0 0.03 0.50 0.41 61 1012.1
20260904163931 90 216 2.0 4.0 0.02 0.50 0.41 64 1012.1
20260904163430 90 285 2.0 4.0 0.02 0.50 0.41 63 1012.4
20260904162930 90 28 2.0 6.0 0.02 0.50 0.41 63 1012.5
20260904162430 90 255 2.0 6.0 0.02 0.50 0.41 66 1012.6
20260904161928 90 244 2.0 5.0 0.03 0.50 0.41 64 1012.5
20260904161429 89 305 1.0 4.0 0.03 0.50 0.41 63 1012.5
20260904160926 89 52 2.0 4.0 0.03 0.50 0.41 65 1012.6
20260904160425 89 259 2.0 7.0 0.02 0.50 0.40 65 1012.7
20260904155946 89 124 2.0 4.0 0.03 0.47 0.40 65 1012.7
20260904155937 89 0 1.0 7.0 0.03 0.47 0.40 66 1012.6
20260904154923 89 283 2.0 5.0 0.03 0.47 0.40 65 1012.7
20260904154422 89 258 1.0 5.0 0.02 0.47 0.39 65 1012.6
20260904153918 89 82 3.0 5.0 0.02 0.47 0.39 65 1012.5
20260904153658 89 73 1.0 3.0 0.02 0.47 0.39 67 1012.6
20260904152915 88 276 1.0 3.0 0.02 0.47 0.39 69 1012.6
20260904152412 88 41 0.0 4.0 0.02 0.47 0.39 70 1012.6
20260904152150 89 41 1.0 5.0 0.01 0.47 0.38 69 1012.6
20260904151409 88 72 2.0 5.0 0.02 0.47 0.38 67 1012.8
20260904150908 89 258 1.0 5.0 0.02 0.47 0.38 68 1012.8
20260904150408 88 235 1.0 5.0 0.02 0.47 0.38 68 1012.8
20260904150144 88 276 2.0 4.0 0.01 0.46 0.37 70 1013.0
20260904145404 88 42 2.0 6.0 0.01 0.46 0.37 70 1013.0
20260904144904 88 1 2.0 6.0 0.01 0.46 0.37 70 1013.0
20260904144710 88 8 2.0 4.0 0.01 0.46 0.37 70 1012.9
20260904144418 87 59 1.0 5.0 0.01 0.46 0.37 70 1013.0
20260904143405 87 217 1.0 4.0 0.01 0.46 0.37 72 1012.8
20260904142905 87 296 1.0 4.0 0.01 0.46 0.37 73 1012.8
20260904142402 86 0 0.0 3.0 0.02 0.46 0.37 74 1012.8
20260904141902 87 292 1.0 3.0 0.02 0.46 0.37 75 1012.9
20260904141403 87 333 0.0 2.0 0.01 0.46 0.36 76 1012.8
20260904140904 85 350 0.0 2.0 0.01 0.46 0.36 77 1013.0
20260904140401 86 350 0.0 2.0 0.01 0.46 0.36 76 1012.9
20260904135902 85 331 0.0 2.0 0.01 0.45 0.36 76 1012.8
20260904135402 85 331 0.0 2.0 0.01 0.45 0.36 77 1012.9
20260904134902 84 341 0.0 3.0 0.01 0.45 0.36 79 1012.9
20260904134403 85 351 0.0 4.0 0.02 0.45 0.36 79 1012.8
20260904133902 85 340 0.0 4.0 0.02 0.45 0.36 80 1012.8
20260904133402 85 321 0.0 3.0 0.02 0.45 0.36 79 1012.9
20260904132901 84 190 0.0 3.0 0.03 0.45 0.36 82 1012.9
20260904132644 82 190 0.0 3.0 0.02 0.45 0.35 84 1012.8
20260904131900 82 148 0.0 1.0 0.02 0.45 0.35 86 1012.7
20260904131403 80 147 0.0 1.0 0.03 0.45 0.35 87 1012.7
20260904130917 79 148 0.0 0.0 0.03 0.45 0.35 88 1013.1
20260904130910 80 147 0.0 0.0 0.03 0.45 0.35 87 1012.8
20260904125853 80 148 0.0 0.0 0.04 0.41 0.35 87 1013.1
20260904125354 78 148 0.0 1.0 0.04 0.41 0.35 92 1013.0
20260904124853 77 147 0.0 1.0 0.04 0.41 0.35 93 1013.1
20260904124353 77 148 0.0 0.0 0.03 0.41 0.34 96 1013.1
20260904123854 75 148 0.0 0.0 0.03 0.41 0.34 96 1013.1
20260904123351 75 147 0.0 0.0 0.04 0.41 0.34 97 1013.0
20260904122851 74 148 0.0 1.0 0.03 0.41 0.33 97 1013.0
20260904122351 74 148 0.0 1.0 0.03 0.41 0.33 97 1012.8
20260904121840 73 148 0.0 0.0 0.03 0.41 0.33 97 1012.8
20260904121340 72 147 0.0 1.0 0.02 0.41 0.32 97 1012.7
20260904120840 72 148 0.0 1.0 0.02 0.41 0.32 97 1012.8
20260904120401 71 147 0.0 0.0 0.02 0.39 0.31 97 1012.8
20260904120354 71 147 0.0 1.0 0.03 0.41 0.31 97 1012.7
20260904115340 71 147 0.0 0.0 0.02 0.39 0.31 97 1012.8
20260904114836 71 147 0.0 2.0 0.02 0.39 0.31 97 1012.9
20260904114613 71 147 0.0 2.0 0.02 0.39 0.31 97 1012.8
20260904113833 70 147 0.0 2.0 0.01 0.39 0.30 97 1012.8
20260904113333 70 147 1.0 2.0 0.01 0.39 0.30 97 1012.7
20260904112834 70 147 0.0 1.0 0.02 0.39 0.30 97 1012.7
20260904112613 70 147 0.0 1.0 0.02 0.39 0.30 97 1012.6
20260904111833 70 147 0.0 0.0 0.02 0.39 0.30 97 1012.7
20260904111330 70 147 0.0 0.0 0.02 0.39 0.30 97 1012.7
20260904110831 70 147 0.0 0.0 0.02 0.39 0.30 97 1012.7
20260904110332 70 147 0.0 1.0 0.01 0.39 0.29 97 1012.6
20260904105832 70 147 0.0 1.0 0.01 0.38 0.29 97 1012.7
20260904105331 69 147 0.0 1.0 0.02 0.38 0.29 97 1012.8
20260904104833 70 147 0.0 1.0 0.02 0.38 0.29 97 1012.3
20260904104356 70 147 0.0 0.0 0.02 0.38 0.29 97 1012.7
20260904104347 70 147 0.0 1.0 0.02 0.38 0.29 97 1012.5
20260904103330 70 147 0.0 1.0 0.02 0.38 0.29 97 1012.5
20260904102831 70 147 0.0 1.0 0.01 0.38 0.28 97 1012.4
20260904102331 70 147 0.0 1.0 0.01 0.38 0.28 97 1012.3
20260904101831 70 147 0.0 2.0 0.02 0.38 0.28 97 1012.0
20260904101332 70 147 0.0 2.0 0.02 0.38 0.28 97 1011.9
20260904101111 70 147 1.0 2.0 0.02 0.38 0.28 97 1012.0
20260904100332 70 147 2.0 3.0 0.02 0.38 0.28 97 1012.1
20260904095832 70 148 0.0 3.0 0.03 0.35 0.28 97 1011.7
20260904095332 70 148 1.0 2.0 0.02 0.35 0.27 97 1011.6
20260904094832 70 149 0.0 0.0 0.02 0.35 0.27 97 1011.4
20260904094333 70 149 0.0 0.0 0.02 0.35 0.27 97 1011.3
20260904093831 70 149 0.0 0.0 0.02 0.35 0.27 96 1011.4
20260904093330 70 149 0.0 0.0 0.02 0.35 0.27 97 1011.3
20260904092833 70 149 0.0 0.0 0.03 0.35 0.27 97 1011.2
20260904092329 70 149 0.0 1.0 0.03 0.35 0.27 96 1011.1
20260904091852 70 149 0.0 1.0 0.03 0.35 0.26 97 1011.0
20260904091843 69 149 0.0 1.0 0.02 0.35 0.26 96 1011.1
20260904091105 69 149 0.0 0.0 0.03 0.35 0.26 96 1011.1
20260904090350 69 149 0.0 0.0 0.02 0.33 0.25 96 1011.3
20260904090341 69 149 0.0 0.0 0.03 0.35 0.26 96 1011.3
20260904085326 69 149 0.0 0.0 0.02 0.33 0.25 96 1011.4
20260904084824 69 149 0.0 0.0 0.03 0.33 0.25 96 1011.4
20260904084324 70 149 0.0 1.0 0.03 0.33 0.25 97 1011.5
20260904084101 70 149 0.0 1.0 0.03 0.33 0.25 97 1011.5
20260904083324 70 149 0.0 0.0 0.04 0.33 0.25 96 1011.5
20260904082823 70 149 0.0 0.0 0.03 0.33 0.24 96 1011.6
20260904082324 70 149 0.0 0.0 0.03 0.33 0.24 96 1011.5
20260904081824 70 149 0.0 0.0 0.03 0.33 0.24 96 1011.5
20260904081324 70 149 0.0 1.0 0.03 0.33 0.23 96 1011.5
20260904080823 70 149 0.0 1.0 0.03 0.33 0.23 96 1011.6
20260904080323 70 149 0.0 0.0 0.04 0.33 0.23 96 1011.5
20260904075823 70 149 0.0 0.0 0.04 0.29 0.23 96 1011.5
20260904075325 70 149 0.0 0.0 0.04 0.29 0.23 96 1011.5
20260904074824 70 149 0.0 0.0 0.03 0.29 0.22 96 1011.5
20260904074603 70 149 0.0 0.0 0.04 0.29 0.22 96 1011.5
20260904073825 70 149 0.0 1.0 0.04 0.29 0.22 96 1011.5